ON7XX-13 Weather Reports


time (UTC)temp
C
wind
direction
speed
KPH
gust
KPH
rain 1hr
cm
rain 24hr
cm
rain mn
cm
humidity
%
barometer
mb
20260506155900 15 0.0 0.0 0.00 0.00 0.00 68 1012.4
20260506154846 15 0.0 0.0 0.00 0.00 0.00 68 1012.4
20260506153831 15 0.0 0.0 0.00 0.00 0.00 69 1012.3
20260506152817 15 0.0 0.0 0.00 0.00 0.00 70 1012.3
20260506151803 15 0.0 0.0 0.00 0.00 0.00 69 1012.3
20260506145734 15 0.0 0.0 0.00 0.00 0.00 70 1012.3
20260506144719 15 0.0 0.0 0.00 0.00 0.00 70 1012.3
20260506143706 15 0.0 0.0 0.00 0.00 0.00 70 1012.3
20260506142651 15 0.0 0.0 0.00 0.00 0.00 70 1012.2
20260506141637 15 0.0 0.0 0.00 0.00 0.00 70 1012.2
20260506140623 15 0.0 0.0 0.00 0.00 0.00 70 1012.3
20260506135608 15 0.0 0.0 0.00 0.00 0.00 69 1012.2
20260506134554 16 0.0 0.0 0.00 0.00 0.00 68 1012.2
20260506133540 16 0.0 0.0 0.00 0.00 0.00 68 1012.2
20260506132526 15 0.0 0.0 0.00 0.00 0.00 69 1012.3
20260506131511 15 0.0 0.0 0.00 0.00 0.00 69 1012.3
20260506130457 15 0.0 0.0 0.00 0.00 0.00 69 1012.2
20260506125443 15 0.0 0.0 0.00 0.00 0.00 69 1012.1
20260506124429 15 0.0 0.0 0.00 0.00 0.00 69 1012.1
20260506123415 15 0.0 0.0 0.00 0.00 0.00 69 1012.0
20260506122400 15 0.0 0.0 0.00 0.00 0.00 69 1012.0
20260506121346 15 0.0 0.0 0.00 0.00 0.00 69 1012.1
20260506120332 15 0.0 0.0 0.00 0.00 0.00 69 1011.9
20260506115318 15 0.0 0.0 0.00 0.00 0.00 71 1012.0
20260506114304 14 0.0 0.0 0.00 0.00 0.00 69 1012.1
20260506113249 14 0.0 0.0 0.00 0.00 0.00 70 1012.0
20260506112235 14 0.0 0.0 0.00 0.00 0.00 71 1012.0
20260506111220 14 0.0 0.0 0.00 0.00 0.00 71 1012.0
20260506110206 13 0.0 0.0 0.00 0.00 0.00 72 1012.0
20260506105152 13 0.0 0.0 0.00 0.00 0.00 73 1012.0
20260506104138 13 0.0 0.0 0.00 0.00 0.00 73 1012.1
20260506102109 14 0.0 0.0 0.00 0.00 0.00 71 1011.9
20260506101055 14 0.0 0.0 0.00 0.00 0.00 71 1011.9
20260506100041 14 0.0 0.0 0.00 0.00 0.00 72 1011.8
20260506095026 14 0.0 0.0 0.00 0.00 0.00 70 1011.8
20260506094012 13 0.0 0.0 0.00 0.00 0.00 72 1011.7
20260506092958 13 0.0 0.0 0.00 0.00 0.00 72 1011.7
20260506091943 13 0.0 0.0 0.00 0.00 0.00 75 1011.7
20260506090930 13 0.0 0.0 0.00 0.00 0.00 75 1011.6
20260506085915 13 0.0 0.0 0.00 0.00 0.00 74 1011.5
20260506083846 13 0.0 0.0 0.00 0.00 0.00 76 1011.5
20260506082832 12 0.0 0.0 0.00 0.00 0.00 77 1011.4
20260506081818 12 0.0 0.0 0.00 0.00 0.00 79 1011.3
20260506080804 12 0.0 0.0 0.00 0.00 0.00 79 1011.3
20260506072707 12 0.0 0.0 0.00 0.00 0.00 80 1011.2
20260506071653 12 0.0 0.0 0.00 0.00 0.00 80 1011.1
20260506070638 12 0.0 0.0 0.00 0.00 0.00 82 1011.0
20260506061527 10 0.0 0.0 0.00 0.00 0.00 87 1011.1
20260506060513 10 0.0 0.0 0.00 0.00 0.00 87 1011.1
20260506051402 10 0.0 0.0 0.00 0.00 0.00 86 1011.1
20260506050347 10 0.0 0.0 0.00 0.00 0.00 86 1011.0
20260506044319 10 0.0 0.0 0.00 0.00 0.00 87 1011.0
20260506042250 10 0.0 0.0 0.00 0.00 0.00 86 1011.0
20260506041236 10 0.0 0.0 0.00 0.00 0.00 86 1011.0
20260506040221 10 0.0 0.0 0.00 0.00 0.00 86 1011.0
20260506035207 10 0.0 0.0 0.00 0.00 0.00 86 1011.0
20260506034153 10 0.0 0.0 0.00 0.00 0.00 86 1010.9
20260506033139 10 0.0 0.0 0.00 0.00 0.00 86 1011.0
20260506032125 10 0.0 0.0 0.00 0.00 0.00 85 1011.0
20260506031111 10 0.0 0.0 0.00 0.00 0.00 86 1011.0
20260506030056 10 0.0 0.0 0.00 0.00 0.00 86 1011.2
20260506025042 10 0.0 0.0 0.00 0.00 0.00 86 1011.1
20260506024028 10 0.0 0.0 0.00 0.00 0.00 86 1011.0
20260506021959 10 0.0 0.0 0.00 0.00 0.00 86 1011.1
20260506015930 10 0.0 0.0 0.00 0.00 0.00 84 1011.2
20260506014916 10 0.0 0.0 0.00 0.00 0.00 84 1011.2
20260506013902 10 0.0 0.0 0.00 0.00 0.00 83 1011.3
20260506012847 10 0.0 0.0 0.00 0.00 0.00 84 1011.3
20260506011833 11 0.0 0.0 0.00 0.00 0.00 83 1011.3
20260506010819 11 0.0 0.0 0.00 0.00 0.00 84 1011.3
20260506005804 11 0.0 0.0 0.00 0.00 0.00 83 1011.3
20260506004750 11 0.0 0.0 0.00 0.00 0.00 83 1011.3
20260506003736 11 0.0 0.0 0.00 0.00 0.00 84 1011.3
20260506002721 11 0.0 0.0 0.00 0.00 0.00 83 1011.4
20260506001707 11 0.0 0.0 0.00 0.00 0.00 84 1011.5
20260506000653 11 0.0 0.0 0.00 0.00 0.00 83 1011.6
20260505235639 11 0.0 0.0 0.00 0.00 0.00 85 1011.6
20260505234624 11 0.0 0.0 0.00 0.00 0.00 83 1011.7
20260505233610 11 0.0 0.0 0.00 0.00 0.00 83 1011.7
20260505232556 11 0.0 0.0 0.00 0.00 0.00 83 1011.7
20260505231542 11 0.0 0.0 0.00 0.00 0.00 83 1011.7
20260505230528 11 0.0 0.0 0.00 0.00 0.00 82 1011.8
20260505225513 11 0.0 0.0 0.00 0.00 0.00 82 1011.7
20260505224459 11 0.0 0.0 0.00 0.00 0.00 82 1011.7
20260505223445 11 0.0 0.0 0.00 0.00 0.00 82 1011.7
20260505222431 12 0.0 0.0 0.00 0.00 0.00 82 1011.7
20260505221417 12 0.0 0.0 0.00 0.00 0.00 80 1011.7
20260505220402 12 0.0 0.0 0.00 0.00 0.00 81 1011.7
20260505215348 12 0.0 0.0 0.00 0.00 0.00 80 1011.8
20260505214334 12 0.0 0.0 0.00 0.00 0.00 80 1011.8
20260505213320 12 0.0 0.0 0.00 0.00 0.00 79 1011.8
20260505212306 12 0.0 0.0 0.00 0.00 0.00 80 1011.7
20260505211251 12 0.0 0.0 0.00 0.00 0.00 79 1011.7
20260505210237 12 0.0 0.0 0.00 0.00 0.00 80 1011.7
20260505205223 12 0.0 0.0 0.00 0.00 0.00 80 1011.7
20260505204209 12 0.0 0.0 0.00 0.00 0.00 79 1011.7
20260505203155 12 0.0 0.0 0.00 0.00 0.00 78 1011.7
20260505202141 12 0.0 0.0 0.00 0.00 0.00 77 1011.7
20260505201126 13 0.0 0.0 0.00 0.00 0.00 76 1011.6
20260505200112 13 0.0 0.0 0.00 0.00 0.00 77 1011.5
20260505195058 13 0.0 0.0 0.00 0.00 0.00 76 1011.4
20260505194044 13 0.0 0.0 0.00 0.00 0.00 75 1011.3
20260505193030 13 0.0 0.0 0.00 0.00 0.00 75 1011.2
20260505192015 13 0.0 0.0 0.00 0.00 0.00 75 1011.2
20260505191001 13 0.0 0.0 0.00 0.00 0.00 74 1011.2
20260505185946 13 0.0 0.0 0.00 0.00 0.00 74 1011.1
20260505184932 14 0.0 0.0 0.00 0.00 0.00 73 1011.1
20260505183918 14 0.0 0.0 0.00 0.00 0.00 73 1011.1
20260505182904 14 0.0 0.0 0.00 0.00 0.00 72 1011.1
20260505181850 14 0.0 0.0 0.00 0.00 0.00 72 1011.0
20260505180836 14 0.0 0.0 0.00 0.00 0.00 72 1011.1
20260505175821 15 0.0 0.0 0.00 0.00 0.00 72 1011.1
20260505174807 15 0.0 0.0 0.00 0.00 0.00 70 1011.1
20260505173753 15 0.0 0.0 0.00 0.00 0.00 70 1011.0
20260505172739 15 0.0 0.0 0.00 0.00 0.00 68 1011.0
20260505170709 16 0.0 0.0 0.00 0.00 0.00 67 1010.9
20260505165655 16 0.0 0.0 0.00 0.00 0.00 66 1011.0
20260505164640 16 0.0 0.0 0.00 0.00 0.00 65 1010.9
20260505163626 16 0.0 0.0 0.00 0.00 0.00 65 1010.9
20260505162612 16 0.0 0.0 0.00 0.00 0.00 65 1010.8
20260505161557 16 0.0 0.0 0.00 0.00 0.00 65 1010.8
20260505160543 17 0.0 0.0 0.00 0.00 0.00 65 1010.7